User: anonymous   Login
Location: Unspecified
(0.0000°N, 0.0000°E)
Time: 22:11:48
(UTC+01:00)
Language:

Ariane H10 - Orbit

View from above orbital plane
View from above orbital plane
View from above satellite
View from above satellite

Ground track
Ground track

The orbit data is extracted from the following two-line orbital elements,

1 21815U 91084C   17016.53735381  .00000039  00000-0  34882-3 0  9999
2 21815   3.7279 142.5840 7199598 312.7279   5.9028  2.31715672208817
Epoch (UTC): 16 January 2017 12:53:47
Eccentricity: 0.7199598
inclination: 3.7279°
perigee height: 377 km
apogee height: 35112 km
right ascension of ascending node: 142.5840°
argument of perigee: 312.7279°
revolutions per day: 2.31715672
mean anomaly at epoch: 5.9028°
orbit number at epoch: 20881

The dashed part of the orbit path shows where the satellite is in the earth's shadow,  

DLR